sat.trackr.live / text

‹ back to catalog

STARLINK-34489

NORAD 64679 · 2025-139R

PAYLOAD ACTIVE UNKNOWN

§ Identity

Operator
Country
US
Launch date
2025-06-28
Launch site
AFETR
Launch vehicle
Mass (kg)
RCS (m²)

Purposes: comms

External: N2YO · Heavens-Above · Gunter

§ Orbital elements

Epoch: 2026-05-25T02:40:36.755328Z

Period
93.85 min
Inclination
53.1578°
Eccentricity
0.0001824
Mean motion
15.34405153 rev/d
Perigee alt
461.4 km
Apogee alt
463.9 km
Semi-major
6,840.8 km
B*
5.3960e-4
RAAN
131.4245°
Arg perigee
108.9609°
Mean anomaly
251.1591°
Rev number
5,199

§ Raw data

STARLINK-344891 64679U 25139R   26145.11153652  .00017902  00000+0  53960-3 0  99982 64679  53.1578 131.4245 0001824 108.9609 251.1591 15.34405153 51990

JSON: /api/v1/satellites/64679 · /tle

For live sub-satellite position, see the globe view (requires WebGL).

§ Visibility from observer

Set your observer location to see the next 7 days of passes ≥ 10°. The values pass through the URL so the page stays shareable.

No JS? Fill the form by hand. The geolocation button needs JavaScript.